Regional Weather Roundup
Issued by NWS Charleston, SC

Current Version | Previous Version | Graphics & Text | Print | Product List | Glossary On
Versions: 1 2 3 4 5 6 7 8 9 10 11 12 13 14 15 16 17 18 19 20 21 22 23 24 25 26 27 28 29 30 31 32 33 34 35 36 37 38 39 40 41 42 43 44 45 46 47 48 49 50
000 ASUS42 KCHS 111911 RWRCHS REGIONAL WEATHER ROUNDUP NATIONAL WEATHER SERVICE CHARLESTON SC 200 PM EST MON DEC 11 2017 NOTE: "FAIR" INDICATES FEW OR NO CLOUDS BELOW 12,000 FEET WITH NO SIGNIFICANT WEATHER AND/OR OBSTRUCTIONS TO VISIBILITY. NOT ALL STATIONS ARE QUALITY CONTROLLED. USE DATA WITH CAUTION... ESPECIALLY DEWPOINT OBSERVATIONS. SCZ027-030-031-034>040-042>050-112000- ...SOUTHEAST SOUTH CAROLINA... CITY SKY/WX TMP DP RH WIND PRES REMARKS N CHARLESTON SUNNY 56 31 38 VRB5 30.09F WATERFRONT PRK NOT AVBL JOHNS ISLAND FAIR 59 32 36 SW7 30.10F PINOPOLIS NOT AVBL MONCKS CORNER FAIR 54 30 40 CALM 30.09F SUMMERVILLE FAIR 55 32 41 S3 30.10F BEAUFORT MCAS SUNNY 58 35 42 VRB5 30.11F BEAUFORT ARPT FAIR 55 34 44 NW6 30.11F HILTON HEAD IS SUNNY 57 34 41 W7 30.12F WALTERBORO CLEAR 55 32 41 W6 30.11F ALLENDALE FAIR 57 32 38 VRB3 30.09F ...SOUTHERN MIDLANDS AND PEE DEE... CITY SKY/WX TMP DP RH WIND PRES REMARKS GEORGETOWN FAIR 54 32 43 W6 30.10F KINGSTREE FAIR 54 27 35 W5 30.09F ORANGEBURG SUNNY 54 29 38 S6 30.09F BARNWELL N/A 59 36 41 VRB5 30.09F AIKEN FAIR 55 32 41 S3 30.10F MANNING FAIR 54 16 22 MISG 30.09F COLUMBIA SUNNY 59 31 34 SW6 30.07F SUMTER SUNNY 55 27 34 SW7 30.06F FLORENCE SUNNY 53 29 39 S6 30.08F MYRTLE BEACH SUNNY 52 35 52 SE5 30.10F N MYRTLE BEACH SUNNY 51 35 54 S5 30.08F $$ GAZ063-065-086>088-099>101-113>116-118-119-134>141-150-112000- ...SOUTHEAST GEORGIA... CITY SKY/WX TMP DP RH WIND PRES REMARKS SAVANNAH ARPT SUNNY 60 32 34 W9 30.12F HUNTER AAF SUNNY 61 33 35 W8 30.09F FORT STEWART SUNNY 60 33 36 W8 30.10F STATESBORO SUNNY 60 28 29 W7 30.11F SYLVANIA CLEAR 58 37 45 W6 30.12F CLAXTON FAIR 60 34 37 W8 30.13F ...CSRA...CENTRAL AND FAR SOUTHEAST GEORGIA... CITY SKY/WX TMP DP RH WIND PRES REMARKS THOMSON SUNNY 59 32 36 NW6 30.12F AUGUSTA-BUSH SUNNY 61 30 31 W9 30.07F AUGUSTA-DANIEL SUNNY 60 32 34 VRB5 30.08F SWAINSBORO FAIR 59 36 41 NW7 30.11F VIDALIA SUNNY 63 36 36 SW9 30.12F EASTMAN FAIR 63 15 16 SW8 30.14F HAZLEHURST FAIR 62 14 15 W3 30.11F ALMA SUNNY 62 32 32 W8 30.12F WAYCROSS SUNNY 62 26 25 W10 30.13F JESUP NOT AVBL BAXLEY FAIR 59 32 36 W6 30.12F BRUNSWICK SUNNY 61 32 33 SW8 30.14F SAINT SIMONS SUNNY 59 34 39 W8 30.13F $$ SCZ027-028-034-036>038-045-046-048>050-GAZ119-141-112000- ...LAKE AND SUPPLEMENTAL COASTAL OBSERVATIONS... STATION/POSITION TIME TEMP WIND PRES WAVE SWELL AIR SEA DIR/SP/G HT/PER HT/PER/DIR (UTC) (F) (DEG/KT/KT) (MB) (FT/S) (FT/S/D) WINYAH BAY 1745 50 270/ 4 1020.0 LAKE MURRAY 1820 53 140/ 3/ 4 1018.3 ACE BASIN NERRS 1745 54 280/ 3 1021.0 FORT PULASKI 1848 55 55 300/ 7/ 9 1019.9F SAPELO ISLAND NOT AVBL $$ ANZ835-935-AMZ111-154-330-350-352-354-370-450-454-472-112000- ...C-MAN AND BUOY OBSERVATIONS... STATION/POSITION TIME TEMP WIND PRES WAVE SWELL AIR SEA DIR/SP/G HT/PER HT/PER/DIR (UTC) (F) (DEG/KT/KT) (MB) (FT/S) (FT/S/D) BUOY 41004 1850 74 270/ 12/ 14 1019.0F 3/ 6 2/220/ 6 BUOY 41008 1850 54 62 240/ 8/ 10 1020.3F 1/ 3 2/ 50/10 FOLLY BEACH CMAN 1800 51 150/ 4/ 5 1020.7F CAPERS NEARSHORE 1808 48 58 230/ 4/ 8 1019.7F FRIPP NEARSHORE 1808 51 56 250/ 8/ 14 1020.0F STATION/POSITION TIME TEMP WIND PRES WAVE SWELL AIR SEA DIR/SP/G HT/PER HT/PER/DIR (UTC) (F) (DEG/KT/KT) (MB) (FT/S) (FT/S/D) 5E ST. MARYS GA 1830 60 N/A 1/10 FRYING PAN BUOY 1850 53 64 270/ 8/ 12 1018.5F 3/ 6 3/230/ 6 BUOY 41025 1850 51 75 290/ 10/ 14 1018.6F 3/ 5 3/210/ 5 CAPE LOOKOUT NC 1800 300/ 4/ 5 1019.4F BUOY 41002 1750 65 76 260/ 10/ 12 1019.1 4/ 8 3/ 50/ 8 BUOY 41010 NOT AVBL ST AUGUSTINE FL 1900 55 62 70/ 4/ 4 1022.1F $$

USA.gov is the U.S. government's official web portal to all federal, state and local government web resources and services.